Regional Weather Roundup
Issued by NWS

Home | Current Version | Previous Version | Graphics & Text | Print | Product List | Glossary On
Versions: 1 2 3 4 5 6 7 8 9 10 11 12 13 14 15 16 17 18 19 20 21 22 23 24 25 26 27 28 29 30 31 32 33 34 35 36 37 38 39 40 41 42 43 44 45 46 47 48 49 50
000
ASUS43 KOAX 260002
RWRNE

WEATHER ROUNDUP FOR NEBRASKA
NATIONAL WEATHER SERVICE OMAHA NE
700 PM CDT SUN JUN 25 2017

NOTES: SATELLITE DATA IS BEING USED TO AUGMENT CLOUD COVER ABOVE
       12000 FEET.
       "FAIR" INDICATES FEW OR NO CLOUDS BELOW 12,000 FEET WITH NO
       SIGNIFICANT WEATHER AND/OR OBSTRUCTIONS TO VISIBILITY.

  * THESE STATIONS DO NOT REPORT WEATHER SUCH AS RAIN...SNOW OR FOG.

NEZ001>004-019>022-054>056-260100-
NEBRASKA PANHANDLE

CITY           SKY/WX    TMP DP  RH WIND       PRES   REMARKS
SCOTTSBLUFF    SUNNY     78  44  29 SE12      30.22F
6HR MIN TEMP:  73; 6HR MAX TEMP:  79;

ALLIANCE       MOSUNNY   74  40  29 S9        30.22F
6HR MIN TEMP:  71; 6HR MAX TEMP:  80;

CHADRON        SUNNY     79  39  23 W3        30.18F
6HR MIN TEMP:  74; 6HR MAX TEMP:  83;

GORDON         CLOUDY    75  40  28 CALM      30.19F
6HR MIN TEMP:  71; 6HR MAX TEMP:  78;

KIMBALL        MOSUNNY   72  50  46 E10       30.29F
SIDNEY         SUNNY     71  49  45 SE12      30.28F
6HR MIN TEMP:  68; 6HR MAX TEMP:  73;

$$

NEZ057>060-069>072-079>082-260100-
SOUTHWEST NEBRASKA

CITY           SKY/WX    TMP DP  RH WIND       PRES   REMARKS
NORTH PLATTE   MOSUNNY   76  45  33 S8        30.23F
6HR MIN TEMP:  70; 6HR MAX TEMP:  79;

IMPERIAL       PTSUNNY   66  52  60 S13       30.28S
6HR MIN TEMP:  60; 6HR MAX TEMP:  72; 6HR PCP:  0.03;

LEXINGTON      SUNNY     74  46  36 S12       30.26S
MCCOOK         CLOUDY    68  54  60 S8        30.26F
6HR MIN TEMP:  67; 6HR MAX TEMP:  73; 6HR PCP: TRACE;

OGALLALA       MOSUNNY   74  47  37 S13       30.26S
$$

NEZ005>010-023>029-035>040-094-260100-
NORTH CENTRAL NEBRASKA

CITY           SKY/WX    TMP DP  RH WIND       PRES   REMARKS
VALENTINE      PTSUNNY   78  33  19 SW3       30.18F
6HR MIN TEMP:  73; 6HR MAX TEMP:  81;

AINSWORTH      MOSUNNY   77  39  25 SE6       30.19F
BROKEN BOW     MOSUNNY   76  41  28 S9        30.22F
6HR MIN TEMP:  71; 6HR MAX TEMP:  79;

O`NEILL        SUNNY     74  39  27 NW5       30.21F
ORD            SUNNY     76  36  23 S9        30.21F
6HR MIN TEMP:  72; 6HR MAX TEMP:  78;

THEDFORD       PTSUNNY   79  41  26 S14       30.21F
$$

NEZ041-046>049-061>064-073>077-083>087-260100-
SOUTH CENTRAL NEBRASKA

CITY           SKY/WX    TMP DP  RH WIND       PRES   REMARKS
GRAND ISLAND   SUNNY     76  41  28 SW8       30.24F
6HR MIN TEMP:  71; 6HR MAX TEMP:  77;

AURORA         SUNNY     76  40  27 CALM      30.24S
HASTINGS       SUNNY     74  45  35 SW9       30.26F
6HR MIN TEMP:  69; 6HR MAX TEMP:  76;

HEBRON         SUNNY     74  45  35 SW6       30.25S
HOLDREGE       SUNNY     70  43  38 S9        30.26F
KEARNEY *      SUNNY     73  43  33 S12       30.26S
YORK           SUNNY     75  39  27 CALM      30.24S
$$

NEZ011>018-030>034-042>045-260100-
NORTHEAST NEBRASKA

CITY           SKY/WX    TMP DP  RH WIND       PRES   REMARKS
NORFOLK        SUNNY     75  39  27 N8        30.23S
6HR MIN TEMP:  70; 6HR MAX TEMP:  75;

ALBION         SUNNY     76  37  24 S5        30.23S
BLAIR          SUNNY     74  40  29 NW7       30.23S
FREMONT        SUNNY     75  40  28 NW5       30.23S
TEKAMAH        SUNNY     75  36  24 NW8       30.21F
6HR MIN TEMP:  71; 6HR MAX TEMP:  77;

WAYNE          SUNNY     74  39  28 N5        30.23S
$$

NEZ050>053-065>068-078-088>093-260100-
SOUTHEAST NEBRASKA

CITY           SKY/WX    TMP DP  RH WIND       PRES   REMARKS
LINCOLN        SUNNY     78  41  26 N5        30.23F
6HR MIN TEMP:  72; 6HR MAX TEMP:  79;

OMAHA EPPLEY   MOSUNNY   77  40  26 NE7       30.22F
6HR MIN TEMP:  71; 6HR MAX TEMP:  78;

BEATRICE       SUNNY     75  50  41 S6        30.23F
FALLS CITY     SUNNY     76  47  35 NW7       30.22F
6HR MIN TEMP:  70; 6HR MAX TEMP:  77;

NEBRASKA CITY  SUNNY     74  44  34 N6        30.23F
PLATTSMOUTH    SUNNY     74  42  31 NW5       30.23F
$$

NEZ044-045-051>053-067-260100-
OMAHA AREA

CITY           SKY/WX    TMP DP  RH WIND       PRES   REMARKS
OMAHA EPPLEY   MOSUNNY   77  40  26 NE7       30.22F
6HR MIN TEMP:  71; 6HR MAX TEMP:  78;

BLAIR          SUNNY     74  40  29 NW7       30.23S
FREMONT        SUNNY     75  40  28 NW5       30.23S
MILLARD        SUNNY     76  43  30 NW6       30.22F
OFFUTT AFB     SUNNY     75  41  29 NW5       30.21F
PLATTSMOUTH    SUNNY     74  42  31 NW5       30.23F
WAHOO          FAIR      76  37  24 NW7       30.22F
$$



USA.gov is the U.S. government's official web portal to all federal, state and local government web resources and services.